Modesto, Modesto City-County-Sham Field, United States
Lat: 37.62N, Lon: 120.95W
Local Info
Past Weather Observations for Yesterday

NOTE: This archive is for the closest National Weather Service station to Modesto, Modesto City-County-Sham Field. Information may differ from the station used for current weather conditions.

Click here for Long-term Archive

Time Weather Temperature Dewpoint Humidity Pressure Winds Precip Visibility
23:53
Clear
66°F / 19°C 52°F / 11°C 60% 29.92 in
(1013 mb)
NNW 12.7 mph
(NNW 20 kph)
- 10SM
22:53
Clear
66°F / 19°C 52°F / 11°C 60% 29.92 in
(1013 mb)
NNW 12.7 mph
(NNW 20 kph)
- 10SM
21:53
Clear
70°F / 21°C 52°F / 11°C 53% 29.92 in
(1013 mb)
NW 17.3 mph
(NW 28 kph)
- 10SM
20:53
Clear
72°F / 22°C 52°F / 11°C 50% 29.89 in
(1012 mb)
NW 15 mph
(NW 24 kph)
- 10SM
19:53
Clear
75°F / 24°C 50°F / 10°C 41% 29.89 in
(1012 mb)
NW 13.8 mph
(NW 22 kph)
- 10SM
18:53
Clear
79°F / 26°C 52°F / 11°C 39% 29.86 in
(1011 mb)
NW 15 mph
(NW 24 kph)
- 10SM
17:53
Clear
84°F / 29°C 52°F / 11°C 33% 29.83 in
(1010 mb)
NW 16.1 mph
(NW 26 kph)
- 10SM
16:53
Clear
88°F / 31°C 52°F / 11°C 29% 29.83 in
(1010 mb)
NNW 15 mph
(NNW 24 kph)
- 10SM
15:53
Clear
90°F / 32°C 52°F / 11°C 27% 29.83 in
(1010 mb)
NW 10.4 mph
(NW 17 kph)
- 10SM
14:53
Clear
90°F / 32°C 52°F / 11°C 27% 29.83 in
(1010 mb)
NW 11.5 mph
(NW 19 kph)
- 10SM
13:53
Clear
90°F / 32°C 52°F / 11°C 27% 29.86 in
(1011 mb)
NNW 9.2 mph
(NNW 15 kph)
- 10SM
12:53
Clear
88°F / 31°C 52°F / 11°C 29% 29.89 in
(1012 mb)
NNW 11.5 mph
(NNW 19 kph)
- 10SM
11:53
Clear
84°F / 29°C 54°F / 12°C 35% 29.92 in
(1013 mb)
NNW 11.5 mph
(NNW 19 kph)
- 10SM
10:53
Clear
81°F / 27°C 54°F / 12°C 39% 29.92 in
(1013 mb)
NW 9.2 mph
(NW 15 kph)
- 10SM
09:53
Clear
77°F / 25°C 54°F / 12°C 44% 29.92 in
(1013 mb)
N 10.4 mph
(N 17 kph)
- 10SM
08:53
Clear
73°F / 23°C 55°F / 13°C 53% 29.92 in
(1013 mb)
NW 11.5 mph
(NW 19 kph)
- 10SM
07:53
Clear
70°F / 21°C 55°F / 13°C 60% 29.92 in
(1013 mb)
NNW 10.4 mph
(NNW 17 kph)
- 10SM
06:53
Clear
66°F / 19°C 55°F / 13°C 68% 29.92 in
(1013 mb)
NNW 10.4 mph
(NNW 17 kph)
- 10SM
05:53
Clear
64°F / 18°C 55°F / 13°C 73% 29.92 in
(1013 mb)
Calm - 10SM
05:15
Partly Cloudy
63°F / 17°C 55°F / 13°C 77% 29.89 in
(1012 mb)
N 11.5 mph
(N 19 kph)
- 10SM
04:53
Clear
64°F / 18°C 55°F / 13°C 73% 29.89 in
(1012 mb)
Calm - 10SM
03:53
Clear
64°F / 18°C 54°F / 12°C 68% 29.89 in
(1012 mb)
N 11.5 mph
(N 19 kph)
- 10SM
02:53
Clear
64°F / 18°C 54°F / 12°C 68% 29.86 in
(1011 mb)
N 10.4 mph
(N 17 kph)
- 10SM
01:53
Clear
66°F / 19°C 54°F / 12°C 64% 29.86 in
(1011 mb)
N 8.1 mph
(N 13 kph)
- 10SM
00:53
Clear
66°F / 19°C 54°F / 12°C 64% 29.86 in
(1011 mb)
N 9.2 mph
(N 15 kph)
- 10SM
Time Weather Temperature Dewpoint Humidity Pressure Winds Precip Visibility


Weather for websites

WeatherForYou.com, LLC is not responsible for any damages or problems caused by this service. Current weather conditions are obtained from the closest station including government and personal stations which may have varying degrees of accuracy. Weather forecasts are derived from the NOAA NDFD. Like all things, this site belongs to Jesus Christ... He just trusts us to maintain it. If you have any questions or comments email webmaster@weatherforyou.com

Copyright © 2015, WeatherForYou.com LLC. All rights reserved.